TimePDT,TemperatureF,Dew PointF,Humidity,Sea Level PressureIn,VisibilityMPH,Wind Direction,Wind SpeedMPH,Gust SpeedMPH,PrecipitationIn,Events,Conditions,WindDirDegrees,DateUTC
12:53 AM,66.0,55.9,70,29.87,10.0,SE,3.5,-,N/A,,Clear,130,2013-05-28 07:53:00
1:53 AM,64.9,55.9,73,29.86,10.0,Calm,Calm,-,N/A,,Clear,0,2013-05-28 08:53:00
2:43 AM,64.4,55.4,73,29.87,10.0,Calm,Calm,-,N/A,,Mostly Cloudy,0,2013-05-28 09:43:00
2:53 AM,64.9,55.9,73,29.87,10.0,South,3.5,-,N/A,,Mostly Cloudy,190,2013-05-28 09:53:00
3:10 AM,66.2,55.4,68,29.86,10.0,South,3.5,-,N/A,,Overcast,180,2013-05-28 10:10:00
3:53 AM,66.0,55.9,70,29.84,10.0,SE,5.8,-,N/A,,Overcast,140,2013-05-28 10:53:00
4:53 AM,66.0,55.9,70,29.83,10.0,SSE,4.6,-,N/A,,Overcast,160,2013-05-28 11:53:00
5:53 AM,66.0,55.9,70,29.83,10.0,South,4.6,-,N/A,,Overcast,190,2013-05-28 12:53:00
6:53 AM,66.0,55.0,68,29.84,10.0,South,5.8,-,N/A,,Overcast,180,2013-05-28 13:53:00
7:53 AM,66.9,55.0,66,29.84,10.0,SSW,5.8,-,N/A,,Mostly Cloudy,200,2013-05-28 14:53:00
8:23 AM,68.0,55.4,64,29.85,10.0,SSE,5.8,-,N/A,,Mostly Cloudy,160,2013-05-28 15:23:00
8:53 AM,69.1,55.0,61,29.85,10.0,Calm,Calm,-,N/A,,Overcast,0,2013-05-28 15:53:00
9:53 AM,71.1,55.0,57,29.83,10.0,SSE,5.8,-,N/A,,Mostly Cloudy,150,2013-05-28 16:53:00
10:49 AM,73.4,55.4,53,29.84,10.0,SSW,8.1,-,N/A,,Scattered Clouds,210,2013-05-28 17:49:00
10:53 AM,75.0,55.9,51,29.84,10.0,SW,6.9,-,N/A,,Mostly Cloudy,230,2013-05-28 17:53:00
11:00 AM,73.4,55.4,53,29.84,10.0,Variable,5.8,-,N/A,,Scattered Clouds,0,2013-05-28 18:00:00
11:53 AM,75.9,57.0,52,29.83,10.0,SSW,9.2,-,N/A,,Scattered Clouds,200,2013-05-28 18:53:00
12:23 PM,75.2,57.2,53,29.82,10.0,South,8.1,17.3,N/A,,Mostly Cloudy,180,2013-05-28 19:23:00
12:53 PM,75.0,57.0,53,29.81,10.0,South,9.2,16.1,N/A,,Overcast,180,2013-05-28 19:53:00
1:49 PM,77.0,55.4,47,29.80,10.0,SSW,9.2,17.3,N/A,,Scattered Clouds,210,2013-05-28 20:49:00
1:53 PM,77.0,55.9,48,29.79,10.0,South,10.4,16.1,N/A,,Partly Cloudy,190,2013-05-28 20:53:00
2:53 PM,77.0,54.0,45,29.78,10.0,South,11.5,20.7,N/A,,Clear,190,2013-05-28 21:53:00
3:53 PM,75.9,57.0,52,29.78,10.0,South,10.4,16.1,N/A,,Clear,180,2013-05-28 22:53:00
4:53 PM,77.0,57.9,52,29.76,10.0,SSW,8.1,-,N/A,,Clear,200,2013-05-28 23:53:00
5:53 PM,75.0,57.9,55,29.74,10.0,South,10.4,-,N/A,,Clear,170,2013-05-29 00:53:00
6:53 PM,73.9,59.0,59,29.74,10.0,South,5.8,-,N/A,,Clear,190,2013-05-29 01:53:00
7:53 PM,71.1,59.0,66,29.74,10.0,South,6.9,-,N/A,,Clear,170,2013-05-29 02:53:00
8:53 PM,69.1,59.0,70,29.75,10.0,SSE,4.6,-,N/A,,Clear,160,2013-05-29 03:53:00
9:43 PM,69.8,59.0,68,29.77,10.0,SSE,6.9,-,N/A,,Mostly Cloudy,160,2013-05-29 04:43:00
9:53 PM,69.1,59.0,70,29.78,10.0,SSW,5.8,-,N/A,,Mostly Cloudy,200,2013-05-29 04:53:00
10:02 PM,68.0,59.0,73,29.77,10.0,South,4.6,-,N/A,,Scattered Clouds,180,2013-05-29 05:02:00
10:53 PM,68.0,57.9,70,29.78,10.0,SSW,3.5,-,N/A,,Clear,200,2013-05-29 05:53:00
11:53 PM,66.9,57.9,73,29.78,10.0,South,4.6,-,N/A,,Clear,170,2013-05-29 06:53:00